Regional Weather Roundup
Issued by NWS

Home | Current Version | Previous Version | Graphics & Text | Print | Product List | Glossary On
Versions: 1 2 3 4 5 6 7 8 9 10 11 12 13 14 15 16 17 18 19 20 21 22 23 24 25 26 27 28 29 30 31 32 33 34 35 36 37 38 39 40 41 42 43 44 45 46 47 48 49 50
000
ASUS45 KBOU 052010
RWRCO

WEATHER ROUNDUP FOR COLORADO
NATIONAL WEATHER SERVICE DENVER/BOULDER CO
200 PM MDT SUN JUL 05 2015

NOTE: "FAIR" INDICATES FEW OR NO CLOUDS BELOW 12000 FEET WITH NO
SIGNIFICANT WEATHER AND/OR OBSTRUCTIONS TO VISIBILITY.

COZ001>005-013-030-031-052100-
...NORTHWEST COLORADO...

CITY           SKY/WX    TMP DP  RH WIND       PRES   REMARKS
CRAIG          LGT RAIN  68  55  63 W7        30.18F
HAYDEN         CLOUDY    61  55  82 NW6       30.20S
MEEKER         CLOUDY    65  58  78 SE6       30.18F
MOUNT WERNER   NOT AVBL
STEAMBOAT SPGS CLOUDY    64  56  75 CALM      30.21S
WALDEN         CLOUDY    66  48  52 NW13      30.23S
$$

COZ006>008-011-052100-
...WEST CENTRAL VALLEYS...

CITY           SKY/WX    TMP DP  RH WIND       PRES   REMARKS
GRAND JUNCTION PTSUNNY   75  59  57 VRB5      30.08F
MONTROSE       CLOUDY    76  57  51 NE6       30.15F
EAGLE          CLOUDY    66  61  82 W8        30.20R
RIFLE          CLOUDY    71  59  65 E6        30.13F
DELTA          CLOUDY    78  56  46 SW6       30.12F
NUCLA          TSTM      63  59  88 N7        30.22R
$$

COZ017>023-064>068-052100-
...SOUTHWEST COLORADO...

CITY           SKY/WX    TMP DP  RH WIND       PRES   REMARKS
DURANGO        PTSUNNY   77  54  44 W13G21    30.20F
CORTEZ         PTSUNNY   79  55  43 CALM      30.16F
PAGOSA SPRINGS CLOUDY    74  47  39 W7        30.27F
TELLURIDE      PTSUNNY   65  50  58 CALM      30.38F
WOLF CREEK PAS NOT AVBL
$$

COZ009-010-012-014-032>034-037-058>063-052100-
...CENTRAL COLORADO...

CITY           SKY/WX    TMP DP  RH WIND       PRES   REMARKS
ASPEN          CLOUDY    67  55  65 N10       30.25R
BUENA VISTA    CLOUDY    75  44  33 W8        30.20F
COPPER MTN     LGT RAIN  54  45  71 SW9       30.54F
BERTHOUD PASS  PTSUNNY   50  41  71 MISG      30.58F
COTTONWOOD PAS NOT AVBL
GUNNISON       CLOUDY    72  48  43 NE13      30.26F
KREMMLING      CLOUDY    73  43  33 CALM      30.19F
LEADVILLE      LGT RAIN  54  51  90 S3        30.38R FOG
MONARCH PASS   CLOUDY    55  43  62 W30G37    30.64S
SALIDA         CLOUDY    76  50  39 S13G18    30.24F
SUNLIGHT       CLOUDY    57  55  94 CALM      30.48F FOG
WILKERSON PASS CLOUDY    64  43  45 SW3       30.50F
$$

COZ069>075-052100-
...SAN LUIS VALLEY/SANGRE DE CRISTO MOUNTAINS...

CITY           SKY/WX    TMP DP  RH WIND       PRES   REMARKS
ALAMOSA        PTSUNNY   79  46  31 S12       30.19F
LA VETA PASS   PTSUNNY   63  43  48 MISG      30.41S
SAGUACHE       CLOUDY    61  55  82 W7        30.19F THUNDER
$$

COZ035-036-038>040-052100-
...NORTHERN COLORADO FRONT RANGE...

CITY           SKY/WX    TMP DP  RH WIND       PRES   REMARKS
DENVER INTL AP PTSUNNY   89  45  21 E6        29.96F
DMNS CITY PARK   N/A     82  49  31 W22       29.97R
AURORA         PTSUNNY   86  50  28 SE6       29.98F
FRONT RANGE AP PTSUNNY   90  50  25 MISG      29.97F
ERIE MUNI ARPT CLOUDY    86  43  22 S6        29.94S
BOULDER MUN AP CLOUDY    84  50  30 SE13      29.95S
CENTENNIAL     CLOUDY    87  45  23 VRB3      30.00F
BROOMFIELD     CLOUDY    81  52  36 SW6       30.00S
FORT COLLINS   PTSUNNY   93  52  24 SE9       29.90F
LONGMONT       PTSUNNY   96  44  16 SE9       29.94F
$$

COZ041-046-047-076>085-087-088-052100-
...PIKES PEAK/PALMER DIVIDE AND SOUTHERN FOOTHILLS...

CITY           SKY/WX    TMP DP  RH WIND       PRES   REMARKS
COLO. SPRINGS  CLOUDY    85  50  29 S5        30.04F
A. F. ACADEMY  CLOUDY    81  51  35 S7        30.06F
ELLICOTT       CLOUDY   N/A N/A N/A S9        30.03F
FALCON         CLOUDY    80  52  37 SE6       30.11F
FORT CARSON    CLOUDY    86  53  32 NE2       30.00F
LIMON          PTSUNNY   87  50  27 S12       29.96F
MONUMENT HILL  CLOUDY    79  50  36 CALM      30.11F
TRINIDAD       CLOUDY    89  48  24 NE6       30.01F
$$

COZ042>045-048>051-090-091-052100-
...NORTHEAST COLORADO...

CITY           SKY/WX    TMP DP  RH WIND       PRES   REMARKS
GREELEY ARPT   PTSUNNY   91  52  25 E7        29.90F
AKRON          MOSUNNY   94  50  22 S8        29.89F
BURLINGTON     MOSUNNY   98  46  17 S17G25    29.88F
WRAY           MOSUNNY  102  46  15 S7G17     29.81F
STERLING       MOSUNNY   97  54  23 S7          N/A
HOLYOKE        SUNNY     99  59  26 S8        29.82F
FORT MORGAN    MOSUNNY   92  45  19 CALM      29.89F
$$

COZ086-089-092>099-052100-
...SOUTHEAST COLORADO...

CITY           SKY/WX    TMP DP  RH WIND       PRES   REMARKS
PUEBLO         PTSUNNY   97  49  19 SW10      29.90F
LA JUNTA       CLOUDY    96  51  21 SE7       29.87F
LAMAR          PTSUNNY  100  56  23 S15G21    29.81F
SPRINGFIELD      N/A     91  56  30 S26G33    29.93F
$$



USA.gov is the U.S. government's official web portal to all federal, state and local government web resources and services.